LPE2440 SPJC-TNCA

Flight info

Callsign LPE2440
Flight time 3h 47m
Altitude 37000
Route AMVEX UL305 TAP UL342 ELABU DCT PIE/N0461F380 DCT KAGEM/N0457F390 DCT UBLAX DCT RHC DCT AMBAS AMBAS2A
Aircraft A320/M-SDE2E3FGHIRWXY/LB1

Departure

Time 2026-05-06 18:34
Airport Jorge Chávez International Airport (SPJC)

Arrival

Time 2026-05-06 22:22
Airport Queen Beatrix International Airport (TNCA)
Time Latitude Longitude Altitude Speed Heading
2026-05-06 18:23 -12.02265 -77.10986 88 ft 0 kts 61°
2026-05-06 18:25 -12.02268 -77.10993 88 ft 2 kts 60°
2026-05-06 18:25 -12.02277 -77.11007 90 ft 2 kts 57°
2026-05-06 18:26 -12.02286 -77.11021 91 ft 2 kts 52°
2026-05-06 18:26 -12.02297 -77.11034 89 ft 2 kts 44°
2026-05-06 18:26 -12.02310 -77.11045 91 ft 2 kts 29°
2026-05-06 18:26 -12.02326 -77.11051 89 ft 2 kts
2026-05-06 18:27 -12.02341 -77.11050 92 ft 2 kts 353°
2026-05-06 18:27 -12.02347 -77.11050 91 ft 0 kts 353°
2026-05-06 18:29 -12.02338 -77.11052 90 ft 5 kts 345°
2026-05-06 18:29 -12.02289 -77.11073 90 ft 10 kts 331°
2026-05-06 18:29 -12.02218 -77.11102 88 ft 14 kts 343°
2026-05-06 18:29 -12.02110 -77.11130 87 ft 18 kts 335°
2026-05-06 18:30 -12.01993 -77.11187 83 ft 19 kts 333°
2026-05-06 18:30 -12.01911 -77.11276 85 ft 18 kts 300°
2026-05-06 18:30 -12.01858 -77.11380 76 ft 16 kts 312°
2026-05-06 18:30 -12.01754 -77.11433 76 ft 18 kts 333°
2026-05-06 18:31 -12.01637 -77.11489 68 ft 20 kts 340°
2026-05-06 18:31 -12.01508 -77.11556 71 ft 22 kts 333°
2026-05-06 18:31 -12.01367 -77.11624 65 ft 23 kts 335°
2026-05-06 18:31 -12.01215 -77.11699 63 ft 25 kts 333°
2026-05-06 18:32 -12.01054 -77.11778 59 ft 27 kts 334°
2026-05-06 18:32 -12.00887 -77.11860 57 ft 27 kts 334°
2026-05-06 18:32 -12.00724 -77.11943 55 ft 25 kts 330°
2026-05-06 18:32 -12.00697 -77.12069 52 ft 17 kts 241°
2026-05-06 18:33 -12.00785 -77.12107 53 ft 12 kts 178°
2026-05-06 18:33 -12.00845 -77.12088 54 ft 6 kts 155°
2026-05-06 18:33 -12.01065 -77.11980 52 ft 76 kts 154°
2026-05-06 18:33 -12.01796 -77.11623 65 ft 154 kts 154°
2026-05-06 18:34 -12.02926 -77.11087 419 ft 188 kts 157°
2026-05-06 18:34 -12.04092 -77.10566 735 ft 188 kts 159°
2026-05-06 18:34 -12.05324 -77.09991 1335 ft 200 kts 156°
2026-05-06 18:34 -12.06513 -77.09218 1986 ft 214 kts 133°
2026-05-06 18:35 -12.07230 -77.07734 2474 ft 254 kts 101°
2026-05-06 18:35 -12.07161 -77.05797 3035 ft 291 kts 76°
2026-05-06 18:35 -12.06238 -77.03902 3771 ft 315 kts 52°
2026-05-06 18:35 -12.04533 -77.02396 4634 ft 334 kts 32°
2026-05-06 18:36 -12.02344 -77.01382 5130 ft 359 kts 18°
2026-05-06 18:36 -11.99908 -77.00857 5649 ft 347 kts
2026-05-06 18:36 -11.97547 -77.00738 6020 ft 345 kts 359°
2026-05-06 18:36 -11.95182 -77.00929 6532 ft 343 kts 351°
2026-05-06 18:37 -11.92821 -77.01408 7134 ft 349 kts 346°
2026-05-06 18:37 -11.91245 -77.01830 7548 ft 352 kts 344°
2026-05-06 18:37 -11.88084 -77.02750 8080 ft 357 kts 343°
2026-05-06 18:37 -11.85702 -77.03456 8489 ft 357 kts 342°
2026-05-06 18:38 -11.83322 -77.04251 9051 ft 358 kts 340°
2026-05-06 18:38 -11.80950 -77.05139 9709 ft 365 kts 338°
2026-05-06 18:38 -11.78671 -77.06179 10183 ft 361 kts 333°
2026-05-06 18:38 -11.76225 -77.06866 10758 ft 369 kts 357°
2026-05-06 18:39 -11.73636 -77.06782 11299 ft 373 kts
2026-05-06 18:39 -11.71044 -77.06509 11833 ft 374 kts
2026-05-06 18:39 -11.68470 -77.06166 12366 ft 377 kts
2026-05-06 18:40 -11.63226 -77.05378 13525 ft 382 kts
2026-05-06 18:40 -11.60615 -77.04972 14102 ft 386 kts
2026-05-06 18:40 -11.57923 -77.04552 14666 ft 390 kts
2026-05-06 18:40 -11.55254 -77.04135 15223 ft 393 kts
2026-05-06 18:41 -11.52519 -77.03711 15809 ft 396 kts
2026-05-06 18:41 -11.49784 -77.03293 16389 ft 401 kts
2026-05-06 18:41 -11.47025 -77.02873 16984 ft 404 kts
2026-05-06 18:41 -11.44209 -77.02445 17606 ft 408 kts
2026-05-06 18:42 -11.41397 -77.02020 18224 ft 413 kts
2026-05-06 18:42 -11.38564 -77.01592 18781 ft 416 kts
2026-05-06 18:42 -11.35663 -77.01153 19336 ft 418 kts
2026-05-06 18:42 -11.32791 -77.00719 19898 ft 420 kts
2026-05-06 18:43 -11.29870 -77.00278 20478 ft 423 kts
2026-05-06 18:43 -11.26962 -76.99842 21056 ft 426 kts
2026-05-06 18:43 -11.24040 -76.99404 21644 ft 429 kts
2026-05-06 18:43 -11.21054 -76.98957 22254 ft 433 kts
2026-05-06 18:44 -11.19069 -76.98660 22650 ft 435 kts
2026-05-06 18:44 -11.15072 -76.98065 23496 ft 439 kts
2026-05-06 18:44 -11.12008 -76.97609 24063 ft 443 kts
2026-05-06 18:44 -11.10005 -76.97312 24416 ft 444 kts
2026-05-06 18:45 -11.06899 -76.96853 24969 ft 444 kts
2026-05-06 18:45 -11.02867 -76.96256 25768 ft 444 kts
2026-05-06 18:45 -11.00832 -76.95954 26198 ft 444 kts
2026-05-06 18:45 -10.97764 -76.95499 26867 ft 444 kts
2026-05-06 18:46 -10.94682 -76.95043 27440 ft 446 kts
2026-05-06 18:46 -10.91640 -76.94594 28027 ft 447 kts
2026-05-06 18:46 -10.88550 -76.94136 28657 ft 447 kts
2026-05-06 18:46 -10.85452 -76.93680 29346 ft 446 kts
2026-05-06 18:47 -10.82407 -76.93231 29852 ft 449 kts
2026-05-06 18:47 -10.79260 -76.92764 30221 ft 456 kts
2026-05-06 18:47 -10.76097 -76.92295 30525 ft 462 kts
2026-05-06 18:47 -10.72929 -76.91824 30730 ft 469 kts
2026-05-06 18:48 -10.69666 -76.91340 31037 ft 473 kts
2026-05-06 18:48 -10.66379 -76.90851 31350 ft 478 kts
2026-05-06 18:48 -10.63074 -76.90359 31670 ft 482 kts
2026-05-06 18:48 -10.59775 -76.89867 31992 ft 485 kts
2026-05-06 18:49 -10.56424 -76.89369 32370 ft 486 kts
2026-05-06 18:49 -10.53075 -76.88870 32766 ft 483 kts
2026-05-06 18:49 -10.49789 -76.88380 33159 ft 480 kts
2026-05-06 18:49 -10.46466 -76.87885 33575 ft 478 kts
2026-05-06 18:50 -10.43197 -76.87399 33978 ft 478 kts
2026-05-06 18:50 -10.39901 -76.86910 34366 ft 478 kts
2026-05-06 18:50 -10.36640 -76.86427 34708 ft 478 kts
2026-05-06 18:50 -10.33340 -76.85939 35072 ft 479 kts
2026-05-06 18:51 -10.30035 -76.85451 35436 ft 479 kts
2026-05-06 18:51 -10.26733 -76.84964 35790 ft 478 kts
2026-05-06 18:51 -10.23455 -76.84482 36040 ft 480 kts
2026-05-06 18:51 -10.20134 -76.83992 36217 ft 476 kts
2026-05-06 18:52 -10.16878 -76.83511 36404 ft 470 kts
2026-05-06 18:52 -10.13640 -76.83035 36583 ft 467 kts
2026-05-06 18:52 -10.10455 -76.82565 36767 ft 468 kts
2026-05-06 18:52 -10.07230 -76.82091 36954 ft 469 kts
2026-05-06 18:53 -10.03977 -76.81614 37140 ft 470 kts
2026-05-06 18:53 -10.00733 -76.81137 37364 ft 469 kts
2026-05-06 18:53 -9.97491 -76.80659 37541 ft 469 kts
2026-05-06 18:54 -9.91029 -76.79707 37657 ft 471 kts
2026-05-06 18:54 -9.84572 -76.78756 37682 ft 468 kts
2026-05-06 18:55 -9.78121 -76.77806 37689 ft 468 kts
2026-05-06 18:55 -9.71663 -76.76855 37711 ft 469 kts
2026-05-06 18:56 -9.65235 -76.75908 37709 ft 468 kts
2026-05-06 18:56 -9.58763 -76.74955 37710 ft 469 kts
2026-05-06 18:57 -9.52315 -76.74009 37692 ft 467 kts
2026-05-06 18:57 -9.45908 -76.73062 37692 ft 469 kts
2026-05-06 18:58 -9.39439 -76.72108 37698 ft 469 kts
2026-05-06 18:58 -9.33006 -76.71160 37681 ft 468 kts
2026-05-06 18:59 -9.26552 -76.70207 37677 ft 468 kts
2026-05-06 18:59 -9.20076 -76.69253 37667 ft 470 kts
2026-05-06 19:00 -9.13629 -76.68304 37660 ft 469 kts
2026-05-06 19:00 -9.07158 -76.67350 37647 ft 468 kts
2026-05-06 19:01 -9.00689 -76.66397 37632 ft 469 kts
2026-05-06 19:01 -8.94226 -76.65448 37618 ft 470 kts
2026-05-06 19:02 -8.87789 -76.64502 37624 ft 468 kts
2026-05-06 19:02 -8.81355 -76.63556 37595 ft 468 kts
2026-05-06 19:03 -8.74863 -76.62602 37600 ft 470 kts
2026-05-06 19:03 -8.68397 -76.61650 37597 ft 469 kts
2026-05-06 19:04 -8.61969 -76.60704 37574 ft 468 kts
2026-05-06 19:04 -8.55543 -76.59759 37560 ft 468 kts
2026-05-06 19:05 -8.49086 -76.58811 37533 ft 468 kts
2026-05-06 19:05 -8.42612 -76.57861 37524 ft 469 kts
2026-05-06 19:06 -8.36177 -76.56915 37511 ft 468 kts
2026-05-06 19:06 -8.29702 -76.55966 37496 ft 469 kts
2026-05-06 19:07 -8.23260 -76.55020 37484 ft 469 kts
2026-05-06 19:07 -8.16835 -76.54077 37479 ft 469 kts
2026-05-06 19:08 -8.10377 -76.53129 37469 ft 469 kts
2026-05-06 19:08 -8.03896 -76.52178 37468 ft 470 kts
2026-05-06 19:09 -7.97422 -76.51227 37456 ft 470 kts
2026-05-06 19:09 -7.90976 -76.50281 37448 ft 470 kts
2026-05-06 19:10 -7.84484 -76.49329 37454 ft 470 kts
2026-05-06 19:10 -7.78038 -76.48383 37447 ft 471 kts
2026-05-06 19:11 -7.71536 -76.47430 37444 ft 471 kts
2026-05-06 19:11 -7.65074 -76.46485 37434 ft 470 kts
2026-05-06 19:12 -7.58609 -76.45537 37435 ft 471 kts
2026-05-06 19:12 -7.52158 -76.44561 37422 ft 471 kts 12°
2026-05-06 19:13 -7.45832 -76.42639 37427 ft 472 kts 18°
2026-05-06 19:13 -7.39654 -76.40415 37418 ft 473 kts 19°
2026-05-06 19:14 -7.33485 -76.38122 37414 ft 472 kts 19°
2026-05-06 19:14 -7.27316 -76.35809 37419 ft 473 kts 19°
2026-05-06 19:15 -7.21193 -76.33502 37426 ft 473 kts 19°
2026-05-06 19:15 -7.15008 -76.31168 37426 ft 472 kts 19°
2026-05-06 19:16 -7.08883 -76.28855 37425 ft 472 kts 19°
2026-05-06 19:16 -7.02722 -76.26525 37422 ft 472 kts 19°
2026-05-06 19:17 -6.96579 -76.24203 37423 ft 472 kts 19°
2026-05-06 19:17 -6.90403 -76.21868 37419 ft 472 kts 20°
2026-05-06 19:18 -6.84269 -76.19547 37424 ft 473 kts 20°
2026-05-06 19:18 -6.78083 -76.17208 37425 ft 473 kts 19°
2026-05-06 19:19 -6.71937 -76.14883 37418 ft 472 kts 20°
2026-05-06 19:19 -6.65785 -76.12557 37418 ft 473 kts 20°
2026-05-06 19:20 -6.59640 -76.10234 37417 ft 474 kts 20°
2026-05-06 19:20 -6.53489 -76.07907 37413 ft 473 kts 20°
2026-05-06 19:21 -6.47321 -76.05575 37415 ft 473 kts 20°
2026-05-06 19:21 -6.41159 -76.03247 37412 ft 475 kts 20°
2026-05-06 19:22 -6.34957 -76.00905 37407 ft 475 kts 20°
2026-05-06 19:22 -6.28755 -75.98563 37403 ft 475 kts 20°
2026-05-06 19:23 -6.22584 -75.96233 37399 ft 476 kts 20°
2026-05-06 19:23 -6.16392 -75.93895 37403 ft 477 kts 20°
2026-05-06 19:24 -6.10150 -75.91540 37403 ft 477 kts 20°
2026-05-06 19:24 -6.03965 -75.89207 37402 ft 476 kts 20°
2026-05-06 19:25 -5.97778 -75.86873 37401 ft 476 kts 20°
2026-05-06 19:25 -5.91548 -75.84524 37401 ft 477 kts 20°
2026-05-06 19:26 -5.85327 -75.82179 37396 ft 476 kts 20°
2026-05-06 19:26 -5.79152 -75.79850 37390 ft 475 kts 20°
2026-05-06 19:27 -5.72993 -75.77530 37391 ft 475 kts 20°
2026-05-06 19:27 -5.66773 -75.75185 37394 ft 475 kts 20°
2026-05-06 19:28 -5.60578 -75.72851 37392 ft 476 kts 20°
2026-05-06 19:28 -5.54396 -75.70521 37392 ft 476 kts 20°
2026-05-06 19:29 -5.49237 -75.68577 37394 ft 476 kts 20°
2026-05-06 19:29 -5.43019 -75.66235 37394 ft 475 kts 20°
2026-05-06 19:30 -5.36833 -75.63906 37389 ft 476 kts 20°
2026-05-06 19:30 -5.30609 -75.61563 37400 ft 477 kts 20°
2026-05-06 19:31 -5.24416 -75.59232 37395 ft 476 kts 20°
2026-05-06 19:31 -5.15046 -75.55703 37395 ft 481 kts 20°
2026-05-06 19:32 -5.08801 -75.53352 37396 ft 482 kts 20°
2026-05-06 19:32 -5.02522 -75.50989 37402 ft 482 kts 20°
2026-05-06 19:33 -4.96207 -75.48613 37417 ft 484 kts 20°
2026-05-06 19:33 -4.89903 -75.46242 37425 ft 485 kts 20°
2026-05-06 19:34 -4.83592 -75.43870 37430 ft 483 kts 20°
2026-05-06 19:34 -4.77323 -75.41515 37434 ft 482 kts 20°
2026-05-06 19:35 -4.71039 -75.39154 37442 ft 484 kts 20°
2026-05-06 19:35 -4.64715 -75.36778 37441 ft 484 kts 20°
2026-05-06 19:36 -4.58447 -75.34423 37442 ft 482 kts 20°
2026-05-06 19:36 -4.52124 -75.32048 37443 ft 483 kts 20°
2026-05-06 19:37 -4.45832 -75.29685 37443 ft 484 kts 20°
2026-05-06 19:37 -4.39540 -75.27322 37442 ft 485 kts 20°
2026-05-06 19:38 -4.33188 -75.24937 37442 ft 485 kts 20°
2026-05-06 19:38 -4.26889 -75.22572 37445 ft 486 kts 20°
2026-05-06 19:39 -4.20533 -75.20187 37445 ft 486 kts 20°
2026-05-06 19:39 -4.14215 -75.17816 37448 ft 487 kts 20°
2026-05-06 19:40 -4.07864 -75.15434 37442 ft 486 kts 20°
2026-05-06 19:40 -4.01549 -75.13066 37445 ft 486 kts 20°
2026-05-06 19:41 -3.95190 -75.10682 37444 ft 487 kts 20°
2026-05-06 19:41 -3.88844 -75.08303 37445 ft 487 kts 20°
2026-05-06 19:42 -3.82489 -75.06018 37441 ft 486 kts 12°
2026-05-06 19:42 -3.75785 -75.04993 37442 ft 487 kts
2026-05-06 19:43 -3.69033 -75.04303 37443 ft 487 kts
2026-05-06 19:43 -3.62307 -75.03687 37444 ft 486 kts
2026-05-06 19:44 -3.55551 -75.03093 37443 ft 484 kts
2026-05-06 19:44 -3.48874 -75.02514 37438 ft 484 kts
2026-05-06 19:45 -3.42144 -75.01935 37438 ft 483 kts
2026-05-06 19:45 -3.35453 -75.01361 37434 ft 482 kts
2026-05-06 19:46 -3.28780 -75.00789 37434 ft 482 kts
2026-05-06 19:46 -3.22115 -75.00217 37432 ft 481 kts
2026-05-06 19:47 -3.15443 -74.99643 37433 ft 481 kts
2026-05-06 19:47 -3.08786 -74.99073 37431 ft 482 kts
2026-05-06 19:48 -3.02103 -74.98501 37429 ft 481 kts
2026-05-06 19:48 -2.95454 -74.97932 37427 ft 481 kts
2026-05-06 19:49 -2.88756 -74.97360 37426 ft 482 kts
2026-05-06 19:49 -2.82075 -74.96790 37427 ft 482 kts
2026-05-06 19:50 -2.75417 -74.96224 37430 ft 481 kts
2026-05-06 19:50 -2.68745 -74.95657 37428 ft 480 kts
2026-05-06 19:51 -2.62078 -74.95090 37426 ft 481 kts
2026-05-06 19:51 -2.55395 -74.94523 37426 ft 481 kts
2026-05-06 19:52 -2.48741 -74.93959 37426 ft 480 kts
2026-05-06 19:52 -2.42095 -74.93394 37427 ft 480 kts
2026-05-06 19:53 -2.35451 -74.92833 37424 ft 481 kts
2026-05-06 19:53 -2.28768 -74.92268 37421 ft 481 kts
2026-05-06 19:54 -2.22091 -74.91703 37426 ft 480 kts
2026-05-06 19:54 -2.15448 -74.91141 37424 ft 480 kts
2026-05-06 19:55 -2.08794 -74.90579 37422 ft 482 kts
2026-05-06 19:55 -2.02088 -74.90011 37422 ft 482 kts
2026-05-06 19:56 -1.95451 -74.89451 37423 ft 481 kts
2026-05-06 19:56 -1.88767 -74.88887 37422 ft 480 kts
2026-05-06 19:57 -1.82098 -74.88327 37423 ft 480 kts
2026-05-06 19:57 -1.75456 -74.87770 37422 ft 480 kts
2026-05-06 19:58 -1.68815 -74.87211 37421 ft 479 kts
2026-05-06 19:58 -1.62198 -74.86651 37424 ft 479 kts
2026-05-06 19:59 -1.55543 -74.86085 37424 ft 480 kts
2026-05-06 19:59 -1.48911 -74.85520 37425 ft 479 kts
2026-05-06 20:00 -1.42265 -74.84955 37423 ft 477 kts
2026-05-06 20:00 -1.35666 -74.84395 37424 ft 478 kts
2026-05-06 20:01 -1.29010 -74.83830 37423 ft 478 kts
2026-05-06 20:01 -1.22400 -74.83269 37424 ft 476 kts
2026-05-06 20:02 -1.15805 -74.82710 37424 ft 476 kts
2026-05-06 20:02 -1.09198 -74.82150 37427 ft 478 kts
2026-05-06 20:03 -1.02530 -74.81584 37420 ft 479 kts
2026-05-06 20:03 -0.95906 -74.81022 37422 ft 479 kts
2026-05-06 20:04 -0.89248 -74.80458 37424 ft 481 kts
2026-05-06 20:04 -0.82591 -74.79892 37422 ft 482 kts
2026-05-06 20:05 -0.75884 -74.79324 37423 ft 481 kts
2026-05-06 20:05 -0.69247 -74.78761 37427 ft 483 kts
2026-05-06 20:06 -0.62522 -74.78189 37427 ft 485 kts
2026-05-06 20:06 -0.55783 -74.77616 37422 ft 485 kts
2026-05-06 20:07 -0.49070 -74.77046 37421 ft 485 kts
2026-05-06 20:07 -0.42368 -74.76478 37437 ft 486 kts
2026-05-06 20:08 -0.35652 -74.75911 37461 ft 486 kts
2026-05-06 20:08 -0.28937 -74.75344 37469 ft 486 kts
2026-05-06 20:09 -0.22208 -74.74776 37467 ft 485 kts
2026-05-06 20:09 -0.15463 -74.74206 37473 ft 485 kts
2026-05-06 20:10 -0.08747 -74.73638 37470 ft 486 kts
2026-05-06 20:10 -0.02003 -74.73067 37469 ft 485 kts
2026-05-06 20:11 0.04673 -74.72183 37473 ft 485 kts 14°
2026-05-06 20:11 0.11141 -74.70309 37467 ft 487 kts 17°
2026-05-06 20:12 0.17601 -74.68245 37477 ft 488 kts 18°
2026-05-06 20:12 0.22978 -74.66486 37478 ft 488 kts 18°
2026-05-06 20:13 0.30478 -74.64011 37474 ft 488 kts 18°
2026-05-06 20:13 0.35840 -74.62234 37474 ft 489 kts 19°
2026-05-06 20:14 0.42306 -74.60088 37477 ft 490 kts 19°
2026-05-06 20:14 0.48798 -74.57928 37479 ft 489 kts 19°
2026-05-06 20:15 0.55197 -74.55797 37500 ft 487 kts 19°
2026-05-06 20:15 0.61657 -74.53644 37503 ft 488 kts 19°
2026-05-06 20:16 0.68080 -74.51503 37510 ft 488 kts 19°
2026-05-06 20:16 0.74524 -74.49353 37515 ft 486 kts 19°
2026-05-06 20:17 0.80946 -74.47210 37514 ft 487 kts 19°
2026-05-06 20:17 0.87380 -74.45063 37530 ft 487 kts 19°
2026-05-06 20:18 0.93771 -74.42933 37546 ft 486 kts 19°
2026-05-06 20:18 1.00162 -74.40803 37549 ft 484 kts 19°
2026-05-06 20:19 1.06533 -74.38681 37555 ft 483 kts 19°
2026-05-06 20:19 1.12911 -74.36554 37559 ft 480 kts 19°
2026-05-06 20:20 1.19213 -74.34452 37554 ft 477 kts 19°
2026-05-06 20:20 1.25525 -74.32344 37552 ft 477 kts 19°
2026-05-06 20:21 1.31824 -74.30239 37549 ft 479 kts 19°
2026-05-06 20:21 1.38142 -74.28128 37552 ft 479 kts 19°
2026-05-06 20:22 1.44488 -74.26008 37572 ft 479 kts 19°
2026-05-06 20:22 1.50792 -74.23901 37557 ft 479 kts 19°
2026-05-06 20:23 1.57133 -74.21781 37553 ft 480 kts 19°
2026-05-06 20:23 1.63475 -74.19663 37558 ft 481 kts 19°
2026-05-06 20:24 1.69807 -74.17547 37555 ft 481 kts 19°
2026-05-06 20:24 1.76141 -74.15430 37558 ft 480 kts 19°
2026-05-06 20:25 1.82463 -74.13314 37557 ft 480 kts 19°
2026-05-06 20:25 1.88829 -74.11183 37560 ft 481 kts 19°
2026-05-06 20:26 1.95167 -74.09062 37558 ft 480 kts 19°
2026-05-06 20:26 2.01496 -74.06945 37554 ft 480 kts 19°
2026-05-06 20:27 2.07826 -74.04829 37558 ft 482 kts 19°
2026-05-06 20:27 2.14214 -74.02693 37555 ft 481 kts 19°
2026-05-06 20:28 2.20522 -74.00583 37555 ft 480 kts 19°
2026-05-06 20:28 2.26877 -73.98457 37560 ft 480 kts 19°
2026-05-06 20:29 2.33233 -73.96329 37561 ft 481 kts 19°
2026-05-06 20:29 2.39555 -73.94213 37562 ft 481 kts 18°
2026-05-06 20:30 2.49058 -73.91034 37562 ft 480 kts 18°
2026-05-06 20:31 2.55409 -73.88910 37563 ft 481 kts 18°
2026-05-06 20:31 2.61761 -73.86786 37566 ft 483 kts 18°
2026-05-06 20:32 2.68141 -73.84652 37565 ft 482 kts 18°
2026-05-06 20:32 2.74484 -73.82530 37566 ft 482 kts 18°
2026-05-06 20:33 2.80856 -73.80398 37564 ft 484 kts 18°
2026-05-06 20:33 2.87281 -73.78246 37567 ft 484 kts 18°
2026-05-06 20:34 2.93641 -73.76118 37561 ft 483 kts 18°
2026-05-06 20:34 2.97897 -73.74694 37564 ft 484 kts 18°
2026-05-06 20:35 3.03473 -73.72827 37566 ft 484 kts 18°
2026-05-06 20:35 3.09824 -73.70702 37565 ft 485 kts 18°
2026-05-06 20:36 3.16255 -73.68548 37589 ft 484 kts 18°
2026-05-06 20:36 3.22623 -73.66415 37605 ft 485 kts 18°
2026-05-06 20:37 3.29045 -73.64262 37615 ft 485 kts 18°
2026-05-06 20:37 3.35433 -73.62124 37617 ft 484 kts 18°
2026-05-06 20:38 3.41807 -73.59991 37615 ft 484 kts 18°
2026-05-06 20:38 3.48150 -73.57867 37623 ft 484 kts 19°
2026-05-06 20:39 3.54574 -73.55716 37636 ft 484 kts 19°
2026-05-06 20:39 3.60918 -73.53588 37635 ft 484 kts 19°
2026-05-06 20:40 3.67319 -73.51443 37630 ft 485 kts 19°
2026-05-06 20:40 3.73732 -73.49289 37629 ft 485 kts 19°
2026-05-06 20:41 3.80128 -73.47140 37633 ft 484 kts 19°
2026-05-06 20:41 3.86479 -73.45006 37623 ft 483 kts 19°
2026-05-06 20:42 3.92848 -73.42866 37649 ft 482 kts 19°
2026-05-06 20:42 3.99182 -73.40737 37691 ft 482 kts 18°
2026-05-06 20:43 4.05579 -73.38793 37686 ft 482 kts 11°
2026-05-06 20:43 4.12210 -73.37725 37679 ft 482 kts
2026-05-06 20:44 4.18869 -73.36917 37679 ft 481 kts
2026-05-06 20:44 4.25506 -73.36198 37716 ft 481 kts
2026-05-06 20:45 4.32173 -73.35497 37761 ft 483 kts
2026-05-06 20:45 4.38849 -73.34789 37769 ft 482 kts
2026-05-06 20:46 4.45521 -73.34077 37777 ft 482 kts
2026-05-06 20:46 4.52170 -73.33365 37790 ft 482 kts
2026-05-06 20:47 4.58880 -73.32645 37797 ft 482 kts
2026-05-06 20:47 4.65515 -73.31932 37804 ft 482 kts
2026-05-06 20:48 4.72170 -73.31137 37810 ft 483 kts
2026-05-06 20:48 4.78837 -73.30156 37815 ft 483 kts
2026-05-06 20:49 4.85458 -73.29134 37836 ft 483 kts
2026-05-06 20:49 4.92128 -73.28090 37859 ft 483 kts
2026-05-06 20:50 4.98764 -73.27051 37872 ft 482 kts
2026-05-06 20:50 5.05349 -73.26017 37878 ft 482 kts
2026-05-06 20:51 5.11980 -73.24975 37885 ft 481 kts
2026-05-06 20:51 5.18591 -73.23936 37895 ft 481 kts
2026-05-06 20:52 5.25182 -73.22899 37898 ft 481 kts
2026-05-06 20:52 5.31808 -73.21855 37901 ft 480 kts
2026-05-06 20:53 5.38395 -73.20817 37903 ft 480 kts
2026-05-06 20:53 5.44996 -73.19776 37900 ft 479 kts
2026-05-06 20:54 5.51575 -73.18739 37894 ft 478 kts
2026-05-06 20:54 5.58118 -73.17707 37891 ft 478 kts
2026-05-06 20:55 5.64654 -73.16676 37885 ft 477 kts
2026-05-06 20:55 5.71227 -73.15639 37881 ft 476 kts
2026-05-06 20:56 5.77767 -73.14607 37871 ft 477 kts
2026-05-06 20:56 5.84309 -73.13574 37866 ft 477 kts
2026-05-06 20:57 5.90875 -73.12538 37875 ft 476 kts
2026-05-06 20:57 5.97413 -73.11504 37888 ft 476 kts
2026-05-06 20:58 6.03956 -73.10470 37893 ft 477 kts
2026-05-06 20:58 6.10508 -73.09435 37888 ft 476 kts
2026-05-06 20:59 6.17043 -73.08403 37874 ft 476 kts
2026-05-06 20:59 6.23596 -73.07367 37873 ft 478 kts
2026-05-06 21:00 6.30192 -73.06324 37863 ft 479 kts
2026-05-06 21:00 6.36739 -73.05289 37871 ft 478 kts
2026-05-06 21:01 6.43325 -73.04247 37886 ft 480 kts
2026-05-06 21:01 6.49919 -73.03204 37885 ft 481 kts
2026-05-06 21:02 6.55437 -73.02330 37882 ft 480 kts
2026-05-06 21:02 6.62021 -73.01287 37888 ft 481 kts
2026-05-06 21:03 6.68667 -73.00232 37884 ft 482 kts
2026-05-06 21:03 6.75265 -72.99188 37893 ft 482 kts
2026-05-06 21:04 6.81926 -72.98133 37900 ft 482 kts
2026-05-06 21:04 6.88546 -72.97082 37922 ft 483 kts
2026-05-06 21:05 6.95194 -72.96029 37936 ft 483 kts
2026-05-06 21:05 7.01809 -72.94983 37947 ft 483 kts
2026-05-06 21:06 7.08473 -72.93927 37956 ft 484 kts
2026-05-06 21:06 7.15092 -72.92878 37958 ft 483 kts
2026-05-06 21:07 7.21748 -72.91822 37966 ft 483 kts
2026-05-06 21:07 7.28375 -72.90771 37971 ft 483 kts
2026-05-06 21:08 7.35031 -72.89716 37969 ft 484 kts
2026-05-06 21:08 7.41695 -72.88659 37972 ft 484 kts
2026-05-06 21:09 7.48327 -72.87605 37962 ft 484 kts
2026-05-06 21:09 7.55018 -72.86542 37968 ft 484 kts
2026-05-06 21:10 7.61572 -72.85500 38265 ft 478 kts
2026-05-06 21:10 7.64824 -72.84981 38557 ft 478 kts
2026-05-06 21:10 7.68137 -72.84452 38678 ft 482 kts
2026-05-06 21:11 7.74806 -72.83391 38722 ft 487 kts
2026-05-06 21:11 7.81510 -72.82326 38450 ft 486 kts
2026-05-06 21:11 7.84868 -72.81794 38175 ft 486 kts
2026-05-06 21:12 7.88192 -72.81267 37857 ft 486 kts
2026-05-06 21:12 7.91536 -72.80738 37557 ft 485 kts
2026-05-06 21:12 7.94849 -72.80212 37260 ft 486 kts
2026-05-06 21:12 7.98211 -72.79679 37007 ft 487 kts
2026-05-06 21:13 8.01564 -72.79145 36781 ft 487 kts
2026-05-06 21:13 8.04887 -72.78616 36538 ft 483 kts
2026-05-06 21:13 8.08193 -72.78089 36291 ft 482 kts
2026-05-06 21:13 8.11491 -72.77565 36053 ft 482 kts
2026-05-06 21:14 8.14849 -72.77031 35819 ft 483 kts
2026-05-06 21:14 8.18149 -72.76506 35601 ft 484 kts
2026-05-06 21:14 8.21423 -72.75985 35365 ft 485 kts
2026-05-06 21:14 8.24818 -72.75445 35099 ft 485 kts
2026-05-06 21:15 8.28115 -72.74920 34832 ft 485 kts
2026-05-06 21:15 8.31430 -72.74392 34699 ft 482 kts
2026-05-06 21:15 8.34756 -72.73861 34568 ft 482 kts
2026-05-06 21:15 8.38077 -72.73331 34447 ft 483 kts
2026-05-06 21:16 8.41401 -72.72800 34346 ft 485 kts
2026-05-06 21:16 8.44744 -72.72266 34232 ft 484 kts
2026-05-06 21:16 8.48029 -72.71741 34152 ft 483 kts
2026-05-06 21:17 8.54697 -72.70669 33980 ft 483 kts
2026-05-06 21:17 8.61227 -72.69555 34474 ft 474 kts 10°
2026-05-06 21:17 8.64469 -72.68941 34693 ft 479 kts 11°
2026-05-06 21:18 8.67689 -72.68318 34806 ft 485 kts 11°
2026-05-06 21:18 8.74338 -72.67011 34702 ft 487 kts 11°
2026-05-06 21:19 8.80717 -72.65750 34705 ft 479 kts 11°
2026-05-06 21:19 8.87277 -72.64449 34705 ft 482 kts 11°
2026-05-06 21:20 8.93847 -72.63142 34777 ft 481 kts 11°
2026-05-06 21:20 9.00388 -72.61839 34860 ft 479 kts 11°
2026-05-06 21:21 9.06931 -72.60535 34868 ft 481 kts 11°
2026-05-06 21:21 9.13471 -72.59233 34812 ft 479 kts 11°
2026-05-06 21:22 9.20007 -72.57930 34739 ft 478 kts 11°
2026-05-06 21:22 9.26522 -72.56632 34725 ft 478 kts 11°
2026-05-06 21:23 9.33097 -72.55322 34782 ft 478 kts 11°
2026-05-06 21:23 9.39607 -72.54024 34853 ft 478 kts 11°
2026-05-06 21:24 9.46122 -72.52725 34879 ft 478 kts 10°
2026-05-06 21:24 9.52656 -72.51420 34888 ft 477 kts 10°
2026-05-06 21:25 9.59141 -72.50123 34907 ft 476 kts 10°
2026-05-06 21:25 9.65670 -72.48816 34915 ft 476 kts 10°
2026-05-06 21:26 9.72131 -72.47526 34925 ft 476 kts 10°
2026-05-06 21:26 9.78657 -72.46221 34930 ft 476 kts 10°
2026-05-06 21:27 9.85129 -72.44927 34936 ft 476 kts 10°
2026-05-06 21:28 9.87654 -72.44422 34938 ft 476 kts 10°
2026-05-06 21:28 9.94176 -72.43117 34942 ft 476 kts 10°
2026-05-06 21:29 10.00657 -72.41819 34955 ft 475 kts 10°
2026-05-06 21:29 10.07147 -72.40519 34954 ft 475 kts 10°
2026-05-06 21:30 10.13619 -72.39222 34958 ft 476 kts 10°
2026-05-06 21:30 10.20119 -72.37919 34970 ft 476 kts 10°
2026-05-06 21:31 10.26642 -72.36610 34972 ft 476 kts 10°
2026-05-06 21:31 10.33165 -72.35301 34975 ft 476 kts
2026-05-06 21:32 10.39635 -72.34003 34979 ft 477 kts
2026-05-06 21:32 10.49417 -72.32038 34982 ft 477 kts
2026-05-06 21:33 10.55903 -72.30737 34981 ft 477 kts
2026-05-06 21:33 10.62434 -72.29424 34980 ft 478 kts
2026-05-06 21:34 10.68965 -72.28111 34988 ft 478 kts
2026-05-06 21:34 10.75476 -72.26801 34985 ft 478 kts
2026-05-06 21:35 10.81988 -72.25490 34979 ft 478 kts
2026-05-06 21:35 10.88549 -72.24169 34975 ft 479 kts
2026-05-06 21:36 10.95090 -72.22851 34842 ft 482 kts
2026-05-06 21:36 10.98352 -72.22193 34534 ft 477 kts
2026-05-06 21:36 11.01565 -72.21543 34140 ft 465 kts
2026-05-06 21:37 11.04716 -72.20907 33694 ft 462 kts
2026-05-06 21:37 11.07869 -72.20270 33226 ft 457 kts
2026-05-06 21:37 11.10950 -72.19650 32749 ft 450 kts
2026-05-06 21:37 11.14004 -72.19038 32252 ft 444 kts
2026-05-06 21:38 11.17002 -72.18436 31788 ft 438 kts
2026-05-06 21:38 11.19967 -72.17841 31315 ft 432 kts 10°
2026-05-06 21:38 11.22920 -72.17251 30841 ft 427 kts 10°
2026-05-06 21:38 11.25826 -72.16669 30383 ft 423 kts 10°
2026-05-06 21:39 11.28681 -72.16096 29915 ft 418 kts 11°
2026-05-06 21:39 11.31511 -72.15527 29380 ft 414 kts 11°
2026-05-06 21:39 11.34332 -72.14960 28833 ft 410 kts 11°
2026-05-06 21:39 11.37130 -72.14396 28310 ft 406 kts 11°
2026-05-06 21:40 11.39877 -72.13843 27786 ft 402 kts 11°
2026-05-06 21:40 11.42609 -72.13292 27285 ft 398 kts 11°
2026-05-06 21:40 11.45298 -72.12749 26771 ft 394 kts 11°
2026-05-06 21:40 11.47998 -72.12204 26261 ft 391 kts 12°
2026-05-06 21:41 11.50658 -72.11667 25760 ft 387 kts 12°
2026-05-06 21:41 11.53242 -72.11145 25288 ft 384 kts 12°
2026-05-06 21:41 11.55892 -72.10609 24790 ft 381 kts 12°
2026-05-06 21:41 11.58483 -72.10085 24317 ft 377 kts 12°
2026-05-06 21:42 11.61024 -72.09570 23850 ft 374 kts 12°
2026-05-06 21:42 11.63572 -72.09055 23370 ft 371 kts 12°
2026-05-06 21:42 11.66096 -72.08543 22801 ft 368 kts 12°
2026-05-06 21:42 11.68613 -72.08031 22238 ft 365 kts 12°
2026-05-06 21:43 11.71067 -72.07531 21694 ft 363 kts 12°
2026-05-06 21:43 11.73546 -72.07026 21134 ft 361 kts 12°
2026-05-06 21:43 11.76012 -72.06524 20605 ft 360 kts 12°
2026-05-06 21:43 11.78460 -72.06026 20150 ft 356 kts 12°
2026-05-06 21:44 11.80894 -72.05531 19756 ft 355 kts 12°
2026-05-06 21:44 11.83295 -72.05042 19373 ft 354 kts 12°
2026-05-06 21:44 11.85724 -72.04550 18989 ft 353 kts 12°
2026-05-06 21:44 11.88115 -72.04065 18612 ft 351 kts 12°
2026-05-06 21:45 11.90509 -72.03579 18230 ft 350 kts 12°
2026-05-06 21:45 11.92870 -72.03101 17812 ft 349 kts 13°
2026-05-06 21:45 11.94450 -72.02783 17518 ft 348 kts 13°
2026-05-06 21:45 11.97607 -72.02147 16944 ft 346 kts 13°
2026-05-06 21:46 11.99980 -72.01670 16520 ft 346 kts 13°
2026-05-06 21:46 12.02336 -72.01196 16097 ft 345 kts 14°
2026-05-06 21:46 12.03902 -72.00880 15816 ft 345 kts 14°
2026-05-06 21:46 12.07040 -72.00246 15267 ft 343 kts 14°
2026-05-06 21:47 12.09374 -71.99771 14856 ft 343 kts 14°
2026-05-06 21:47 12.10933 -71.99455 14582 ft 343 kts 14°
2026-05-06 21:47 12.14034 -71.98824 14048 ft 342 kts 14°
2026-05-06 21:47 12.15627 -71.98499 13778 ft 341 kts 15°
2026-05-06 21:48 12.17929 -71.98030 13341 ft 340 kts 15°
2026-05-06 21:48 12.20265 -71.97553 12885 ft 339 kts 15°
2026-05-06 21:48 12.22545 -71.97086 12433 ft 338 kts 14°
2026-05-06 21:48 12.24860 -71.96612 12018 ft 336 kts 15°
2026-05-06 21:49 12.27148 -71.96143 11728 ft 334 kts 15°
2026-05-06 21:49 12.29434 -71.95675 11506 ft 335 kts 14°
2026-05-06 21:49 12.31725 -71.95204 11302 ft 335 kts 15°
2026-05-06 21:49 12.33991 -71.94741 11102 ft 335 kts 15°
2026-05-06 21:50 12.36274 -71.94277 10898 ft 334 kts 14°
2026-05-06 21:50 12.38577 -71.93805 10700 ft 334 kts 15°
2026-05-06 21:50 12.40855 -71.93340 10491 ft 333 kts 14°
2026-05-06 21:50 12.43094 -71.92884 10299 ft 332 kts 14°
2026-05-06 21:51 12.45362 -71.92421 10102 ft 332 kts 15°
2026-05-06 21:51 12.47609 -71.91962 9902 ft 331 kts 14°
2026-05-06 21:51 12.49874 -71.91500 9691 ft 331 kts 14°
2026-05-06 21:51 12.52134 -71.91043 9472 ft 329 kts 14°
2026-05-06 21:52 12.54381 -71.90589 9239 ft 329 kts 14°
2026-05-06 21:52 12.56629 -71.90135 9018 ft 328 kts 14°
2026-05-06 21:52 12.58872 -71.89678 8787 ft 327 kts 14°
2026-05-06 21:52 12.61069 -71.89226 8579 ft 325 kts 15°
2026-05-06 21:53 12.63293 -71.88772 8344 ft 324 kts 15°
2026-05-06 21:53 12.65525 -71.88321 8125 ft 323 kts 14°
2026-05-06 21:53 12.67710 -71.87872 7913 ft 321 kts 15°
2026-05-06 21:53 12.69892 -71.87426 7682 ft 322 kts 14°
2026-05-06 21:54 12.72090 -71.86976 7467 ft 319 kts 15°
2026-05-06 21:54 12.74274 -71.86527 7246 ft 319 kts 15°
2026-05-06 21:54 12.76417 -71.86086 7023 ft 317 kts 15°
2026-05-06 21:54 12.78534 -71.85510 6777 ft 311 kts 31°
2026-05-06 21:55 12.80120 -71.84115 6511 ft 295 kts 63°
2026-05-06 21:55 12.80690 -71.82176 6245 ft 283 kts 91°
2026-05-06 21:55 12.80614 -71.80162 6002 ft 281 kts 97°
2026-05-06 21:55 12.80416 -71.78181 5846 ft 279 kts 99°
2026-05-06 21:56 12.80167 -71.76211 5830 ft 279 kts 100°
2026-05-06 21:56 12.79884 -71.74236 5827 ft 281 kts 101°
2026-05-06 21:56 12.79585 -71.72281 5835 ft 279 kts 101°
2026-05-06 21:56 12.79273 -71.70298 5832 ft 280 kts 102°
2026-05-06 21:57 12.78960 -71.68344 5826 ft 281 kts 101°
2026-05-06 21:57 12.78643 -71.66380 5837 ft 280 kts 101°
2026-05-06 21:57 12.78326 -71.64408 5844 ft 279 kts 101°
2026-05-06 21:57 12.78014 -71.62453 5846 ft 279 kts 102°
2026-05-06 21:58 12.77697 -71.60481 5859 ft 281 kts 101°
2026-05-06 21:58 12.77377 -71.58505 5862 ft 280 kts 101°
2026-05-06 21:58 12.77059 -71.56530 5871 ft 279 kts 102°
2026-05-06 21:58 12.76748 -71.54588 5882 ft 280 kts 101°
2026-05-06 21:59 12.76424 -71.52610 5893 ft 279 kts 101°
2026-05-06 21:59 12.76102 -71.50632 5897 ft 281 kts 102°
2026-05-06 21:59 12.75790 -71.48682 5904 ft 280 kts 102°
2026-05-06 21:59 12.75473 -71.46707 5918 ft 281 kts 102°
2026-05-06 22:00 12.75149 -71.44727 5940 ft 281 kts 102°
2026-05-06 22:00 12.74833 -71.42780 5940 ft 281 kts 102°
2026-05-06 22:00 12.74509 -71.40788 5944 ft 282 kts 101°
2026-05-06 22:00 12.74189 -71.38825 5958 ft 282 kts 102°
2026-05-06 22:01 12.73869 -71.36841 5967 ft 282 kts 102°
2026-05-06 22:01 12.73548 -71.34838 5967 ft 284 kts 102°
2026-05-06 22:01 12.73229 -71.32848 5984 ft 282 kts 101°
2026-05-06 22:01 12.72909 -71.30879 5988 ft 283 kts 101°
2026-05-06 22:02 12.72590 -71.28888 5993 ft 282 kts 102°
2026-05-06 22:02 12.72273 -71.26921 5998 ft 282 kts 102°
2026-05-06 22:02 12.71946 -71.24928 6010 ft 283 kts 102°
2026-05-06 22:02 12.71622 -71.22938 6028 ft 281 kts 102°
2026-05-06 22:03 12.71303 -71.20960 6029 ft 283 kts 102°
2026-05-06 22:03 12.70984 -71.18987 6040 ft 282 kts 102°
2026-05-06 22:03 12.70660 -71.17000 6042 ft 282 kts 102°
2026-05-06 22:03 12.70340 -71.15009 6045 ft 283 kts 101°
2026-05-06 22:04 12.70022 -71.13043 6056 ft 282 kts 102°
2026-05-06 22:04 12.69697 -71.11058 6063 ft 281 kts 102°
2026-05-06 22:04 12.69370 -71.09071 6065 ft 281 kts 102°
2026-05-06 22:04 12.69047 -71.07097 6070 ft 283 kts 102°
2026-05-06 22:05 12.68719 -71.05106 6078 ft 283 kts 102°
2026-05-06 22:05 12.68396 -71.03137 6087 ft 284 kts 102°
2026-05-06 22:05 12.68071 -71.01138 6091 ft 283 kts 101°
2026-05-06 22:05 12.67745 -70.99142 6098 ft 284 kts 102°
2026-05-06 22:06 12.67422 -70.97168 6109 ft 285 kts 102°
2026-05-06 22:06 12.67091 -70.95166 6125 ft 283 kts 102°
2026-05-06 22:06 12.66762 -70.93172 6137 ft 284 kts 102°
2026-05-06 22:06 12.66438 -70.91195 6152 ft 284 kts 102°
2026-05-06 22:07 12.66110 -70.89194 6158 ft 283 kts 102°
2026-05-06 22:07 12.65783 -70.87222 6161 ft 284 kts 102°
2026-05-06 22:07 12.65452 -70.85220 6166 ft 285 kts 101°
2026-05-06 22:07 12.65126 -70.83222 6170 ft 284 kts 101°
2026-05-06 22:08 12.64799 -70.81219 6181 ft 283 kts 101°
2026-05-06 22:08 12.64477 -70.79245 6186 ft 283 kts 101°
2026-05-06 22:08 12.64150 -70.77240 6197 ft 284 kts 101°
2026-05-06 22:08 12.63820 -70.75238 6181 ft 285 kts 102°
2026-05-06 22:09 12.63492 -70.73257 6145 ft 284 kts 101°
2026-05-06 22:09 12.63163 -70.71256 6105 ft 284 kts 101°
2026-05-06 22:09 12.62840 -70.69283 6067 ft 282 kts 101°
2026-05-06 22:09 12.62515 -70.67310 6022 ft 282 kts 102°
2026-05-06 22:10 12.62190 -70.65327 5978 ft 282 kts 102°
2026-05-06 22:10 12.61865 -70.63365 5939 ft 281 kts 102°
2026-05-06 22:10 12.61534 -70.61375 5894 ft 283 kts 102°
2026-05-06 22:10 12.61205 -70.59389 5853 ft 282 kts 102°
2026-05-06 22:11 12.60875 -70.57404 5813 ft 280 kts 101°
2026-05-06 22:11 12.60554 -70.55458 5762 ft 281 kts 101°
2026-05-06 22:11 12.60233 -70.53493 5710 ft 281 kts 101°
2026-05-06 22:11 12.59907 -70.51517 5652 ft 272 kts 101°
2026-05-06 22:12 12.59604 -70.49678 5456 ft 257 kts 101°
2026-05-06 22:12 12.59309 -70.47903 5217 ft 244 kts 101°
2026-05-06 22:12 12.59036 -70.46233 5012 ft 239 kts 102°
2026-05-06 22:12 12.58763 -70.44583 4699 ft 234 kts 101°
2026-05-06 22:13 12.58488 -70.42943 4438 ft 227 kts 101°
2026-05-06 22:13 12.58234 -70.41416 4394 ft 211 kts 101°
2026-05-06 22:13 12.57986 -70.39949 4092 ft 208 kts 101°
2026-05-06 22:13 12.57744 -70.38520 3710 ft 203 kts 100°
2026-05-06 22:14 12.57506 -70.37120 3319 ft 189 kts 100°
2026-05-06 22:14 12.57296 -70.35823 3090 ft 186 kts 100°
2026-05-06 22:14 12.57082 -70.34518 2799 ft 187 kts 100°
2026-05-06 22:14 12.56864 -70.33189 2493 ft 190 kts 100°
2026-05-06 22:15 12.56647 -70.31882 2293 ft 186 kts 100°
2026-05-06 22:15 12.56462 -70.30801 2219 ft 183 kts 99°
2026-05-06 22:15 12.56237 -70.29510 2146 ft 187 kts 99°
2026-05-06 22:15 12.56024 -70.28213 2097 ft 183 kts 98°
2026-05-06 22:16 12.55814 -70.26915 2055 ft 185 kts 98°
2026-05-06 22:16 12.55602 -70.25608 2041 ft 185 kts 98°
2026-05-06 22:16 12.55391 -70.24327 2016 ft 183 kts 98°
2026-05-06 22:16 12.55177 -70.23042 2122 ft 184 kts 99°
2026-05-06 22:17 12.54928 -70.21749 2184 ft 186 kts 101°
2026-05-06 22:17 12.54652 -70.20459 2215 ft 185 kts 102°
2026-05-06 22:17 12.54353 -70.19166 2238 ft 187 kts 102°
2026-05-06 22:17 12.54045 -70.17893 2250 ft 172 kts 102°
2026-05-06 22:18 12.53778 -70.16775 2361 ft 156 kts 102°
2026-05-06 22:18 12.53520 -70.15626 2359 ft 170 kts 101°
2026-05-06 22:18 12.53281 -70.14489 2226 ft 166 kts 99°
2026-05-06 22:18 12.53123 -70.13421 2015 ft 135 kts 97°
2026-05-06 22:19 12.52964 -70.12514 1669 ft 124 kts 100°
2026-05-06 22:19 12.52748 -70.11670 1280 ft 130 kts 104°
2026-05-06 22:19 12.52508 -70.10701 1068 ft 150 kts 104°
2026-05-06 22:19 12.52204 -70.09658 986 ft 148 kts 106°
2026-05-06 22:20 12.51880 -70.08716 889 ft 140 kts 105°
2026-05-06 22:20 12.51554 -70.07758 726 ft 144 kts 105°
2026-05-06 22:20 12.51276 -70.06786 563 ft 140 kts 101°
2026-05-06 22:20 12.51115 -70.05825 390 ft 137 kts 96°
2026-05-06 22:21 12.50929 -70.04854 363 ft 143 kts 101°
2026-05-06 22:21 12.50668 -70.03866 225 ft 141 kts 101°
2026-05-06 22:21 12.50465 -70.02908 51 ft 137 kts 103°
2026-05-06 22:21 12.50251 -70.01998 37 ft 113 kts 103°
2026-05-06 22:22 12.50128 -70.01488 47 ft 40 kts 104°
2026-05-06 22:22 12.50076 -70.01265 51 ft 26 kts 103°
2026-05-06 22:22 12.50039 -70.01115 50 ft 18 kts 103°
2026-05-06 22:22 12.50057 -70.01024 52 ft 10 kts 39°
2026-05-06 22:23 12.50100 -70.01006 54 ft 4 kts 14°
2026-05-06 22:23 12.50124 -70.00999 54 ft 4 kts 19°
2026-05-06 22:23 12.50174 -70.00986 50 ft 14 kts 15°
2026-05-06 22:23 12.50222 -70.00912 55 ft 14 kts 93°
2026-05-06 22:24 12.50202 -70.00815 60 ft 13 kts 103°
2026-05-06 22:24 12.50247 -70.00768 56 ft 7 kts 12°
2026-05-06 22:24 12.50264 -70.00765 57 ft 0 kts